Location: Ca�n Batista
(41.4099°N, 1.7752°E)
Time: 14:09:09
(UTC+00:00)

HJ-1C - Pass Details

Date: 03 March 2021
Orbit: 428 x 439 km, 97.1° (Epoch: 22 April)

Event Time Altitude Azimuth Distance (km) Brightness Sun altitude
Rises 18:26:17 0° 151° (SSE) 2,417 6.8 -8.3°
Reaches altitude 10° 18:28:23 10° 143° (SE) 1,550 5.8 -8.7°
Maximum altitude 18:31:29 38° 74° (ENE) 689 3.8 -9.3°
Drops below altitude 10° 18:34:36 10° 5° (N) 1,556 6.1 -9.9°
Sets 18:36:42 0° 357° (N) 2,427 7.2 -10.3°
